FENGYUN 1C DEB, 32181

Orbit data source: Space-Track

FENGYUN 1C DEB, 32181 is space debris in SSO originally from a launch on Mon, 10 May 1999 UTC launched from the Taiyaun Space Center, China (TSC). Fengyun 1C debris stems from the Chinese weather satellite Fengyun-1C, which was intentionally destroyed by a Chinese anti-satellite missile in 2007. This event dramatically increased the amount of space debris, with thousands of trackable fragments posing hazards to satellites and human spaceflight. The Fengyun 1C debris cloud has become a focal point in discussions about space sustainability and the need for international regulations to prevent the creation of new debris.

Loading next visibility...
Identifier
32181, 1999-025CUB
Orbit
SSO
Country
Flag of CNCN / PRC
Related business
Manufacturer
Unknown
Mission
Spacecraft
Bus & Motor
Unknown
Mass
Unknown
Launch date (UTC)
1999-05-10 (27 years ago)
Launch vehicle
Unknown
Launch site
Taiyaun Space Center, China (TSC)
Object type
Payload
Rocket body
Debris
Shape & HBR
Unknown shape, 0.1 m
Radar Cross Section
Small (<0.1 m²)

Expand to show TLE details & history
Last TLE update: 2 days ago

TLE from 2 days ago
0 FENGYUN 1C DEB
1 32181U 99025CUB 26162.59625177  .00002888  00000-0  62510-3 0  9992
2 32181  99.4853 296.0413 0070102 264.9738 156.3402 14.57689130993544
Epoch: 2026-06-11T14:18Z
TLE epoch observation values (Epoch: 2026-06-11T14:18:36.152Z)
Latitude
60.31316°
Longitude
164.50423°
Altitude
756.384 km
Speed
7.458 km/s
True Right ascension
18h 36m 22s
True Declination
60° 09' 54"
Sunlit
Object was in daylight at epoch
Visualization orbit readout
Latitude
Unknown
Longitude
Unknown
Altitude
Unknown
Speed
Unknown
Apparent Right ascension
Unknown
Apparent Declination
Unknown
Sunlit
N/A
Visualization observer readout
Local Sidereal Time
01:17:52
Azimuth
Unknown
Elevation
Unknown
Doppler factor
Unknown
Orbital elements
Apogee altitude
747.397 km
Perigee altitude
648.189 km
Semi-major axis
7,075.93 km
Eccentricity
0.00701
Inclination
99.4853°
RAAN
296.0413°
Arg. of periapsis
264.9738°
True anomaly
156.66°
Mean anomaly
156.3402°
Eccentric anomaly
156.50036°
Mean motion
3.64643 °/min
Orbital period
98.73 mins
BSTAR
0.0006251
Loading maneuver chart data...
Computing Atmospheric mass density...

Documentation

Showing up to 5 results
|